View from above orbital plane
|
View from above satellite
|
Ground track
|
The orbit data is extracted from the following two-line orbital elements,
1 28537U 05004A 21103.09487600 0.00000000 00000-0 00000-0 0 08
2 28537 63.4273 226.9024 0389280 358.3476 1.6524 13.40819601 04
Epoch (UTC): | 13 April 2021 02:16:37 |
Eccentricity: | 0.0389280 |
inclination: | 63.4273° |
perigee height: | 815 km |
apogee height: | 1397 km |
right ascension of ascending node: | 226.9024° |
argument of perigee: | 358.3476° |
revolutions per day: | 13.40819601 |
mean anomaly at epoch: | 1.6524° |
orbit number at epoch: | 0 |
The dashed part of the orbit path shows where the satellite is in the earth's shadow,
|
|